Satellite: METEOR-M Catalog number: 35865 Epoch time: 10350.67821250 Element set: 928 Inclination: 098.7349 deg RA of node: 042.9371 deg Eccentricity: 0.0002134 Arg of perigee: 181.7313 deg Mean anomaly: 178.3809 deg Mean motion: 14.21833517 rev/day Decay rate: 1.76e-06 rev/day^2 Epoch rev: 6465 Checksum: 302
Satellite: RS-38 Catalog number: 35869 Epoch time: 10350.77023015 Element set: 940 Inclination: 098.7322 deg RA of node: 043.0679 deg Eccentricity: 0.0004281 Arg of perigee: 189.0786 deg Mean anomaly: 171.0281 deg Mean motion: 14.21996109 rev/day Decay rate: 1.77e-06 rev/day^2 Epoch rev: 6467 Checksum: 313
/EX